#timestamp,LO_Frequency,Hit 
1504220415.2,286046993.3,N
1504220435.9,286046995.5,N
1504220455.7,286046995.6,N
1504220475.6,286046998.1,N
1504220495.4,286047001.0,N
1504220515.2,286046995.0,N
1504220535.0,286046998.9,N
1504220535.9,286046998.9,N
1504220555.8,286046999.0,N
1504220575.6,286046995.6,N
1504220595.4,286046991.8,N
1504220615.3,286046992.3,N
1504220635.1,286046998.0,N
1504220655.8,286046993.8,N
1504220675.7,286046993.4,N
1504220695.5,286046994.4,N
1504220715.3,286046994.6,N
1504220735.2,286046999.1,N
1504220755.9,286047001.4,N
1504220775.7,286047000.0,N
1504220795.6,286046999.8,N
1504220815.4,286047001.2,N
1504220835.2,286046999.3,N
1504220855.0,286046995.3,N
1504220856.0,286046995.3,N
1504220875.8,286046999.4,N
1504220895.6,286047000.0,N
1504220915.4,286047000.5,N
1504220935.3,286046999.2,N
1504220955.1,286046995.1,N
1504220975.8,286046996.1,N
1504220995.7,286046997.5,N
1504221015.5,286046993.4,N
1504221035.3,286046993.9,N
1504221055.2,286046993.4,N
1504221075.9,286046993.5,N
1504221095.7,286046993.9,N
1504221115.6,286046994.4,N
1504221135.4,286046994.2,N
1504221155.2,286046994.3,N
1504221175.1,286046990.6,P
1504221176.0,286046990.6,P
1504221195.8,286046993.3,N
1504221215.6,286046993.9,N
1504221235.5,286046993.3,P
1504221255.3,286047001.3,P
1504221275.1,286047004.2,N
1504221295.9,286047002.7,N
1504221315.7,286047002.5,N
1504221335.5,286047003.8,N
1504221355.4,286047001.6,N
1504221375.2,286047004.4,N
1504221395.0,286047003.5,N
1504221395.9,286047003.5,N
1504221415.8,286047005.5,N
1504221435.6,286047004.0,N
1504221455.4,286047001.3,N
1504221475.2,286047001.7,N
1504221495.1,286047000.3,N
1504221496.0,286047000.3,N
1504221515.8,286047001.4,N
1504221535.6,286047003.2,N
1504221555.5,286047003.1,N
1504221575.3,286047005.1,N
1504221595.1,286047005.9,N
1504221615.9,286047007.3,N
1504221635.7,286047008.4,N
1504221655.5,286047012.3,P
1504221675.4,286047006.1,N
1504221695.2,286047005.3,N
1504221715.0,286047006.7,N
1504221715.9,286047006.7,N
1504221735.8,286047004.9,N
1504221755.6,286047004.9,N
1504221775.4,286047008.9,P
1504221795.3,286047003.5,N
1504221815.1,286047006.0,N
1504221835.8,286047003.2,N
1504221855.7,286047002.0,N
1504221875.5,286047001.7,N
1504221895.3,286047004.0,N
1504221915.2,286047004.3,N
1504221935.9,286047007.1,P
1504221955.7,286047000.2,N
1504221975.6,286047000.6,N
1504221995.4,286046998.6,N
1504222015.2,286046999.9,N
1504222035.1,286046999.7,N
1504222036.0,286046999.7,N
1504222055.8,286047002.6,N
1504222075.6,286047002.0,N
1504222095.4,286047007.0,N
1504222115.3,286047008.8,P
1504222135.1,286047004.1,N
1504222155.9,286047003.7,N
1504222175.7,286047004.4,N
1504222195.5,286047002.9,N
1504222215.3,286047000.6,N
1504222235.2,286047000.4,N
1504222255.0,286046999.9,N
1504222255.9,286046999.9,N
1504222275.7,286046998.7,N
1504222295.6,286046996.8,N
1504222315.4,286047001.2,N
1504222335.2,286047001.5,N
1504222355.1,286047005.3,N
1504222356.0,286047005.3,N
1504222375.8,286047003.6,N
1504222395.6,286047006.8,N
1504222415.5,286047006.6,N
1504222435.3,286047004.6,N
1504222455.1,286047004.9,N
1504222475.9,286047003.9,N
1504222495.7,286047002.7,N
1504222515.5,286046999.7,N
1504222535.3,286047004.4,N
1504222555.2,286047002.3,N
1504222575.0,286046998.2,N
1504222575.9,286046998.2,N
1504222595.7,286047003.2,N
1504222615.6,286047001.4,N
1504222635.4,286047003.4,N
1504222655.2,286047003.4,N
1504222675.1,286047004.0,N
1504222676.0,286047004.0,N
1504222695.8,286047007.0,N
1504222715.6,286047005.1,N
1504222735.5,286047003.0,N
1504222755.3,286047002.1,N
1504222775.1,286046999.9,N
1504222795.9,286047004.3,N
1504222815.7,286047004.8,N
1504222835.5,286047003.4,N
1504222855.4,286047001.6,N
1504222875.2,286047001.3,N
1504222895.0,286047005.2,N
1504222895.9,286047005.2,N
1504222915.7,286047005.3,N
1504222935.6,286047002.5,N
1504222955.4,286047001.3,N
1504222975.2,286047004.2,N
1504222995.1,286047000.8,N
1504222996.0,286047000.8,N
1504223015.8,286046996.8,N
1504223035.6,286047000.2,N
1504223055.5,286047001.1,N
1504223075.3,286047005.3,N
1504223095.1,286047001.7,N
1504223115.9,286047005.1,N
1504223135.7,286047003.6,N
1504223155.5,286047005.5,N
1504223175.4,286047007.0,P
1504223195.2,286047003.8,N
1504223215.0,286047004.4,N
1504223215.9,286047004.4,N
1504223235.8,286047002.6,N
1504223255.6,286047001.3,N
1504223275.4,286047004.0,N
1504223295.3,286046998.8,N
1504223315.1,286046997.5,N
1504223316.0,286046997.5,N
1504223335.8,286046998.0,N
1504223355.7,286046995.6,N
1504223375.5,286046995.2,N
1504223395.3,286046999.3,N
1504223415.1,286047000.6,N
1504223435.9,286046998.8,N
1504223455.7,286046998.7,N
1504223475.5,286046996.5,N
1504223495.4,286046998.6,N
1504223515.2,286046999.5,N
1504223535.0,286046995.6,N
1504223535.9,286046995.6,N
1504223555.8,286046995.8,N
1504223575.6,286046997.6,N
1504223595.4,286046996.7,N
1504223615.3,286046999.3,N
1504223635.1,286047001.8,N
1504223636.0,286047001.8,N
1504223655.8,286047002.8,N
1504223675.7,286047000.1,N
1504223695.5,286047000.6,N
1504223715.3,286046999.7,N
1504223735.2,286047001.1,N
1504223755.9,286046999.7,N
1504223775.7,286047000.5,N
1504223795.5,286047000.4,N
1504223815.4,286046996.7,N
1504223835.2,286046996.7,N
1504223855.0,286046996.7,N
1504223855.9,286046996.7,N
1504223875.8,286046998.0,N
1504223895.6,286046995.7,N
1504223915.4,286046997.8,N
1504223935.3,286046995.9,N
1504223955.1,286046991.9,P
1504223975.8,286046994.4,N
1504223995.7,286046989.1,P
